Weather History for KIER - November, 2013

Change the Weather History Date:

Monday, November 11, 2013

  Actual Average Record
Temperature  
Mean Temperature 57 °F -  
Max Temperature 73 °F 68 °F 86 °F (1969)
Min Temperature 41 °F 45 °F 22 °F (1953)
Degree Days  
Heating Degree Days 8    
Growing Degree Days 7 (Base 50)    
Moisture  
Dew Point 50 °F    
Average Humidity 84    
Maximum Humidity 100    
Minimum Humidity 43    
Precipitation  
Precipitation 0.00 in - - ()
Sea Level Pressure  
Sea Level Pressure 30.23 in    
Wind  
Wind Speed 0 mph (NW)    
Max Wind Speed 6 mph    
Max Gust Speed -    
Visibility 9 miles    
Events      
Averages and records for this station are not official NWS values.
T = Trace of Precipitation, MM = Missing Value Source: NWS Daily Summary

Daily Weather History Graph

Daily Weather History Graph

Search for Another Location

Airport or City:

Trip Planner

Search our weather history database for the weather conditions in past years. The results will help you decide how hot, cold, wet, or windy it might be!

Date:

Astronomy

Nov. 11, 2013 Rise Set
Actual Time 6:37 AM CST 5:15 PM CST
Civil Twilight 6:11 AM CST 5:40 PM CST
Nautical Twilight 5:42 AM CST 6:10 PM CST
Astronomical Twilight 5:13 AM CST 6:38 PM CST
Moon 1:36 PM CST (11/11) 12:44 AM CST (11/11)
Length of Visible Light 11h 29m
Length of Day
10h 37m
Waxing Gibbous, 66% of the Moon is Illuminated
Nov 11
Waxing Gibbous
Nov 17
Full
Nov 25
Last Quarter
Dec 2
New
Dec 9
First Quarter

Hourly Weather History & Observations

Time (CST) Temp. Dew Point Humidity Pressure Visibility Wind Dir Wind Speed Gust Speed Precip Events Conditions
12:15 AM 46.2 °F 46.2 °F 100% 30.27 in 7.0 mi Calm Calm - N/A   Clear
12:35 AM 46.2 °F 46.2 °F 100% 30.26 in 1.0 mi Calm Calm - N/A   Mist
12:55 AM 45.7 °F 45.7 °F 100% 30.26 in 2.0 mi Calm Calm - N/A   Clear
1:15 AM 45.9 °F 45.9 °F 100% 30.26 in 10.0 mi Calm Calm - N/A   Clear
1:35 AM 45.3 °F 45.3 °F 100% 30.26 in 10.0 mi Calm Calm - N/A   Clear
1:55 AM 44.8 °F 44.8 °F 100% 30.25 in 10.0 mi Calm Calm - N/A   Clear
2:15 AM 44.2 °F 44.2 °F 100% 30.25 in 10.0 mi Calm Calm - N/A   Clear
2:35 AM 44.4 °F 44.4 °F 100% 30.25 in 1.0 mi Calm Calm - N/A   Mist
2:55 AM 44.2 °F 44.2 °F 100% 30.25 in 3.0 mi Calm Calm - N/A   Clear
3:15 AM 44.2 °F 44.2 °F 100% 30.25 in 1.0 mi Calm Calm - N/A   Mist
3:35 AM 43.7 °F 43.7 °F 100% 30.24 in 10.0 mi Calm Calm - N/A   Clear
3:55 AM 43.0 °F 43.0 °F 100% 30.24 in 10.0 mi Calm Calm - N/A   Clear
4:15 AM 43.0 °F 43.0 °F 100% 30.24 in 7.0 mi Calm Calm - N/A   Clear
4:35 AM 43.2 °F 43.2 °F 100% 30.24 in 4.0 mi Calm Calm - N/A   Clear
4:55 AM 43.2 °F 43.2 °F 100% 30.24 in 5.0 mi Calm Calm - N/A   Clear
5:15 AM 42.8 °F 42.8 °F 100% 30.24 in 10.0 mi Calm Calm - N/A   Clear
5:35 AM 42.3 °F 42.3 °F 100% 30.25 in 5.0 mi Calm Calm - N/A   Clear
5:55 AM 41.9 °F 41.9 °F 100% 30.25 in 10.0 mi Calm Calm - N/A   Clear
6:15 AM 42.1 °F 42.1 °F 100% 30.26 in 10.0 mi Calm Calm - N/A   Clear
6:35 AM 42.1 °F 42.1 °F 100% 30.26 in 10.0 mi Calm Calm - N/A   Clear
6:55 AM 42.1 °F 42.1 °F 100% 30.26 in 10.0 mi Calm Calm - N/A   Clear
7:15 AM 43.7 °F 43.7 °F 100% 30.27 in 10.0 mi Calm Calm - N/A   Clear
7:35 AM 47.1 °F 47.1 °F 100% 30.28 in 10.0 mi Calm Calm - N/A   Clear
7:55 AM 50.2 °F 50.2 °F 100% 30.28 in 10.0 mi Calm Calm - N/A   Clear
8:15 AM 52.7 °F 51.6 °F 96% 30.29 in 10.0 mi North 3.5 mph - N/A   Clear
8:35 AM 54.3 °F 52.2 °F 92% 30.29 in 10.0 mi Calm Calm - N/A   Clear
8:55 AM 56.1 °F 52.9 °F 89% 30.29 in 10.0 mi Calm Calm - N/A   Clear
9:15 AM 58.3 °F 53.6 °F 84% 30.29 in 10.0 mi Calm Calm - N/A   Clear
9:35 AM 60.3 °F 54.3 °F 81% 30.29 in 10.0 mi Calm Calm - N/A   Clear
9:55 AM 61.5 °F 53.6 °F 75% 30.29 in 10.0 mi Calm Calm - N/A   Clear
10:15 AM 63.5 °F 53.6 °F 70% 30.29 in 10.0 mi Calm Calm - N/A   Clear
10:35 AM 65.7 °F 54.0 °F 66% 30.28 in 10.0 mi Calm Calm - N/A   Clear
10:55 AM 67.8 °F 54.1 °F 62% 30.27 in 10.0 mi Calm Calm - N/A   Clear
11:15 AM 69.6 °F 52.7 °F 55% 30.27 in 10.0 mi Calm Calm - N/A   Clear
11:35 AM 70.3 °F 53.2 °F 55% 30.26 in 10.0 mi Calm Calm - N/A   Clear
11:55 AM 70.9 °F 51.4 °F 50% 30.24 in 10.0 mi Calm Calm - N/A   Clear
12:15 PM 71.4 °F 52.0 °F 50% 30.23 in 10.0 mi Calm Calm - N/A   Clear
12:35 PM 71.8 °F 50.7 °F 47% 30.22 in 10.0 mi Calm Calm - N/A   Clear
12:55 PM 72.5 °F 53.4 °F 51% 30.21 in 10.0 mi NW 5.8 mph - N/A   Clear
1:15 PM 73.2 °F 53.4 °F 50% 30.20 in 10.0 mi NNW 3.5 mph - N/A   Clear
1:35 PM 73.4 °F 52.3 °F 48% 30.19 in 10.0 mi NW 4.6 mph - N/A   Clear
1:55 PM 73.6 °F 52.9 °F 48% 30.19 in 10.0 mi WNW 5.8 mph - N/A   Clear
2:15 PM 73.9 °F 52.2 °F 46% 30.18 in 10.0 mi Calm Calm - N/A   Clear
2:35 PM 73.8 °F 51.4 °F 45% 30.18 in 10.0 mi WNW 3.5 mph - N/A   Clear
2:55 PM 73.4 °F 51.1 °F 45% 30.18 in 10.0 mi NNW 4.6 mph - N/A   Clear
3:15 PM 73.8 °F 49.6 °F 43% 30.18 in 10.0 mi NNW 4.6 mph - N/A   Clear
3:35 PM 73.6 °F 49.8 °F 43% 30.18 in 10.0 mi Calm Calm - N/A   Clear
3:55 PM 72.9 °F 51.4 °F 47% 30.18 in 10.0 mi Calm Calm - N/A   Clear
4:15 PM 71.6 °F 52.2 °F 50% 30.17 in 10.0 mi Calm Calm - N/A   Clear
4:35 PM 70.7 °F 50.9 °F 49% 30.17 in 10.0 mi Calm Calm - N/A   Clear
4:55 PM 66.7 °F 55.0 °F 66% 30.17 in 10.0 mi Calm Calm - N/A   Clear
5:15 PM 60.8 °F 56.5 °F 86% 30.17 in 10.0 mi Calm Calm - N/A   Clear
5:35 PM 58.5 °F 56.1 °F 92% 30.18 in 10.0 mi Calm Calm - N/A   Clear
5:55 PM 56.7 °F 54.5 °F 92% 30.18 in 10.0 mi Calm Calm - N/A   Clear
6:15 PM 56.1 °F 54.5 °F 94% 30.19 in 10.0 mi Calm Calm - N/A   Clear
6:35 PM 54.5 °F 53.2 °F 96% 30.20 in 10.0 mi Calm Calm - N/A   Clear
6:55 PM 54.5 °F 53.8 °F 97% 30.20 in 10.0 mi Calm Calm - N/A   Clear
7:15 PM 54.1 °F 53.6 °F 98% 30.21 in 10.0 mi Calm Calm - N/A   Clear
7:35 PM 53.6 °F 53.4 °F 99% 30.21 in 10.0 mi Calm Calm - N/A   Clear
7:55 PM 52.7 °F 52.5 °F 99% 30.22 in 10.0 mi Calm Calm - N/A   Clear
8:15 PM 52.0 °F 51.6 °F 99% 30.22 in 10.0 mi Calm Calm - N/A   Clear
8:35 PM 51.1 °F 50.9 °F 99% 30.22 in 7.0 mi Calm Calm - N/A   Clear
8:55 PM 51.4 °F 51.3 °F 99% 30.23 in 10.0 mi Calm Calm - N/A   Clear
9:15 PM 50.9 °F 50.7 °F 99% 30.24 in 10.0 mi Calm Calm - N/A   Clear
9:35 PM 50.5 °F 50.4 °F 99% 30.24 in 10.0 mi Calm Calm - N/A   Clear
9:55 PM 50.0 °F 49.8 °F 99% 30.24 in 10.0 mi Calm Calm - N/A   Clear
10:15 PM 50.2 °F 50.0 °F 99% 30.24 in 10.0 mi Calm Calm - N/A   Clear
10:35 PM 49.5 °F 49.3 °F 99% 30.25 in 10.0 mi Calm Calm - N/A   Clear
10:55 PM 49.1 °F 49.1 °F 100% 30.24 in 7.0 mi Calm Calm - N/A   Clear
11:15 PM 49.1 °F 49.1 °F 100% 30.25 in 7.0 mi Calm Calm - N/A   Clear
11:35 PM 48.6 °F 48.6 °F 100% 30.25 in 10.0 mi Calm Calm - N/A   Clear
11:55 PM 48.4 °F 48.4 °F 100% 30.24 in 7.0 mi Calm Calm - N/A   Clear